User: anonymous   Login
Location: Unspecified
(0.0000°N, 0.0000°E)
Time: 23:22:57
(UTC+00:00)
Language:

TBA - TO BE ASSIGNED - Orbit

View from above orbital plane
View from above orbital plane
View from above satellite
View from above satellite

Ground track
Ground track

The orbit is defined by the following mean orbital elements,

1 68551U          26145.32179374 +.00000000 +00000-0 +79917-3 0 00008
2 68551  53.1600   6.1985 0001104  86.7657 273.3472 15.34409323    08
Epoch (UTC): 25 May 2026 07:43:22
Eccentricity: 0.0001104
inclination: 53.1600°
perigee height: 462 km
apogee height: 463 km
right ascension of ascending node: 6.1985°
argument of perigee: 86.7657°
revolutions per day: 15.34409323
mean anomaly at epoch: 273.3472°

The dashed part of the orbit path shows where the satellite is in the earth's shadow,  

DLR